| time (UTC) | temp C | wind direction | speed KPH | gust KPH | rain 1hr cm | rain 24hr cm | rain mn cm | humidity % | barometer mb |
| 20260510161459 | 19 | 262 | 6.4 | 14.5 | 0.00 | 0.84 | 0.00 | 72 | 1012.8 |
| 20260510155958 | 18 | 239 | 6.4 | 14.5 | 0.00 | 0.84 | 0.00 | 74 | 1013.0 |
| 20260510154459 | 18 | 309 | 3.2 | 11.3 | 0.00 | 0.84 | 0.00 | 77 | 1013.0 |
| 20260510152959 | 18 | 308 | 4.8 | 12.9 | 0.00 | 0.84 | 0.00 | 78 | 1013.0 |
| 20260510151459 | 17 | 319 | 1.6 | 9.7 | 0.00 | 0.84 | 0.00 | 83 | 1013.2 |
| 20260510144459 | 16 | 295 | 3.2 | 9.7 | 0.00 | 0.84 | 0.00 | 84 | 1013.1 |
| 20260510141458 | 15 | 132 | 3.2 | 9.7 | 0.00 | 0.84 | 0.00 | 40 | 1013.0 |
| 20260510135959 | 14 | 299 | 3.2 | 8.0 | 0.00 | 0.84 | 0.00 | 25 | 1012.9 |
| 20260510134458 | 13 | 158 | 3.2 | 4.8 | 0.00 | 0.84 | 0.00 | 24 | 1012.7 |
| 20260510132958 | 12 | 164 | 1.6 | 9.7 | 0.00 | 0.84 | 0.00 | 25 | 1012.8 |
| 20260510125957 | 12 | 131 | 1.6 | 6.4 | 0.00 | 0.84 | 0.00 | 25 | 1012.8 |
| 20260510124457 | 11 | 284 | 3.2 | 4.8 | 0.00 | 0.84 | 0.00 | 26 | 1013.1 |
| 20260510122957 | 11 | 283 | 1.6 | 4.8 | 0.00 | 0.84 | 0.00 | 26 | 1012.6 |
| 20260510115957 | 11 | 146 | 0.0 | 3.2 | 0.00 | 0.84 | 0.00 | 27 | 1012.1 |
| 20260510111457 | 10 | 344 | 3.2 | 4.8 | 0.00 | 0.84 | 0.00 | 28 | 1011.6 |
| 20260510104457 | 10 | 344 | 0.0 | 1.6 | 0.00 | 0.84 | 0.00 | 28 | 1011.6 |
| 20260510102957 | 9 | 83 | 0.0 | 4.8 | 0.00 | 0.84 | 0.00 | 29 | 1011.6 |
| 20260510101458 | 9 | 103 | 0.0 | 1.6 | 0.00 | 0.84 | 0.00 | 29 | 1011.4 |
| 20260510094458 | 10 | 103 | 0.0 | 3.2 | 0.00 | 0.84 | 0.00 | 29 | 1011.1 |
| 20260510092957 | 10 | 103 | 3.2 | 4.8 | 0.00 | 0.84 | 0.00 | 29 | 1011.1 |
| 20260510091458 | 10 | 277 | 0.0 | 1.6 | 0.00 | 0.84 | 0.00 | 29 | 1011.2 |
| 20260510085957 | 10 | 277 | 1.6 | 4.8 | 0.00 | 0.84 | 0.00 | 29 | 1011.3 |
| 20260510084458 | 10 | 277 | 1.6 | 4.8 | 0.00 | 0.84 | 0.00 | 29 | 1011.3 |
| 20260510081457 | 10 | 319 | 4.8 | 9.7 | 0.00 | 0.84 | 0.00 | 30 | 1011.5 |
| 20260510075957 | 9 | 303 | 4.8 | 11.3 | 0.00 | 0.84 | 0.00 | 30 | 1011.5 |
| 20260510074457 | 9 | 329 | 6.4 | 16.1 | 0.00 | 0.84 | 0.00 | 31 | 1011.5 |
| 20260510071457 | 9 | 310 | 0.0 | 0.0 | 0.00 | 0.84 | 0.00 | 32 | 1010.4 |
| 20260510065956 | 9 | 310 | 0.0 | 0.0 | 0.00 | 0.84 | 0.00 | 33 | 1010.6 |
| 20260510062957 | 10 | 310 | 0.0 | 3.2 | 0.00 | 0.84 | 0.00 | 33 | 1010.9 |
| 20260510061456 | 10 | 310 | 3.2 | 6.4 | 0.00 | 0.84 | 0.00 | 31 | 1011.1 |
| 20260510055957 | 10 | 121 | 1.6 | 3.2 | 0.00 | 0.84 | 0.00 | 31 | 1010.7 |
| 20260510054457 | 10 | 121 | 1.6 | 6.4 | 0.00 | 0.84 | 0.00 | 32 | 1010.5 |
| 20260510052957 | 10 | 121 | 1.6 | 4.8 | 0.00 | 0.84 | 0.00 | 34 | 1010.6 |
| 20260510051458 | 10 | 121 | 1.6 | 3.2 | 0.00 | 0.84 | 0.00 | 35 | 1010.6 |
| 20260510050000 | 10 | 121 | 1.6 | 3.2 | 0.00 | 0.84 | 0.00 | 37 | 1010.7 |
| 20260510044500 | 10 | 121 | 0.0 | 1.6 | 0.00 | 0.84 | 0.00 | 36 | 1010.9 |
| 20260510042959 | 10 | 121 | 0.0 | 0.0 | 0.00 | 0.84 | 0.00 | 41 | 1010.9 |
| 20260510041459 | 10 | 121 | 0.0 | 0.0 | 0.00 | 0.84 | 0.00 | 40 | 1010.7 |
| 20260510040005 | 10 | 121 | 0.0 | 0.0 | 0.00 | 0.84 | 0.00 | 40 | 1010.9 |
| 20260510034500 | 10 | 121 | 1.6 | 3.2 | 0.00 | 0.84 | 0.84 | 38 | 1010.9 |
| 20260510033001 | 10 | 121 | 0.0 | 0.0 | 0.00 | 0.84 | 0.84 | 42 | 1010.7 |
| 20260510031500 | 10 | 121 | 0.0 | 0.0 | 0.00 | 0.84 | 0.84 | 43 | 1010.6 |
| 20260510024501 | 10 | 121 | 0.0 | 1.6 | 0.00 | 0.84 | 0.84 | 42 | 1010.5 |
| 20260510023001 | 10 | 121 | 0.0 | 0.0 | 0.00 | 0.84 | 0.84 | 46 | 1010.5 |
| 20260510021501 | 10 | 121 | 0.0 | 1.6 | 0.00 | 0.84 | 0.84 | 47 | 1010.5 |
| 20260510020003 | 10 | 121 | 0.0 | 0.0 | 0.00 | 0.84 | 0.84 | 50 | 1010.5 |
| 20260510014500 | 10 | 121 | 0.0 | 0.0 | 0.00 | 0.84 | 0.84 | 50 | 1010.5 |
| 20260510012959 | 10 | 121 | 0.0 | 1.6 | 0.00 | 0.84 | 0.84 | 51 | 1010.5 |
| 20260510011500 | 10 | 121 | 1.6 | 3.2 | 0.00 | 0.84 | 0.84 | 53 | 1010.4 |
| 20260510010001 | 11 | 121 | 1.6 | 6.4 | 0.00 | 0.84 | 0.84 | 52 | 1010.3 |
| 20260510004459 | 11 | 121 | 3.2 | 4.8 | 0.00 | 0.84 | 0.84 | 54 | 1010.1 |
| 20260510001459 | 11 | 121 | 3.2 | 8.0 | 0.00 | 0.84 | 0.84 | 57 | 1009.6 |
| 20260509235959 | 11 | 107 | 4.8 | 6.4 | 0.00 | 0.84 | 0.84 | 61 | 1009.7 |
| 20260509234459 | 12 | 124 | 3.2 | 6.4 | 0.00 | 0.84 | 0.84 | 64 | 1009.7 |
| 20260509232959 | 12 | 72 | 1.6 | 8.0 | 0.00 | 0.84 | 0.84 | 68 | 1009.6 |
| 20260509231459 | 12 | 119 | 1.6 | 4.8 | 0.00 | 0.84 | 0.84 | 71 | 1009.6 |
| 20260509224500 | 12 | 110 | 3.2 | 4.8 | 0.00 | 0.84 | 0.84 | 79 | 1009.6 |
| 20260509223001 | 13 | 1 | 1.6 | 3.2 | 0.00 | 0.84 | 0.84 | 82 | 1009.6 |
| 20260509221501 | 12 | 348 | 0.0 | 3.2 | 0.00 | 0.84 | 0.84 | 80 | 1009.6 |
| 20260509220000 | 12 | 326 | 0.0 | 1.6 | 0.03 | 0.84 | 0.84 | 81 | 1009.5 |
| 20260509214459 | 12 | 326 | 1.6 | 3.2 | 0.03 | 0.84 | 0.84 | 79 | 1009.5 |
| 20260509212959 | 12 | 359 | 3.2 | 9.7 | 0.03 | 0.84 | 0.84 | 76 | 1009.6 |
| 20260509211459 | 12 | 289 | 4.8 | 12.9 | 0.05 | 0.84 | 0.84 | 73 | 1009.8 |
| 20260509210002 | 12 | 283 | 3.2 | 8.0 | 0.10 | 0.81 | 0.81 | 53 | 1009.8 |
| 20260509203000 | 11 | 314 | 0.0 | 1.6 | 0.20 | 0.81 | 0.81 | 60 | 1009.7 |
| 20260509201501 | 11 | 314 | 1.6 | 4.8 | 0.23 | 0.79 | 0.79 | 63 | 1010.1 |
| 20260509200001 | 11 | 314 | 0.0 | 3.2 | 0.20 | 0.71 | 0.71 | 60 | 1009.9 |
| 20260509191500 | 11 | 316 | 4.8 | 9.7 | 0.28 | 0.56 | 0.56 | 65 | 1011.0 |
| 20260509190001 | 11 | 275 | 3.2 | 11.3 | 0.25 | 0.51 | 0.51 | 68 | 1010.9 |
| 20260509184459 | 11 | 301 | 4.8 | 17.7 | 0.25 | 0.43 | 0.43 | 69 | 1011.1 |
| 20260509182959 | 11 | 330 | 3.2 | 11.3 | 0.23 | 0.36 | 0.36 | 69 | 1011.3 |
| 20260509181459 | 12 | 305 | 1.6 | 4.8 | 0.20 | 0.28 | 0.28 | 73 | 1011.3 |
| 20260509180000 | 12 | 285 | 3.2 | 8.0 | 0.20 | 0.23 | 0.23 | 77 | 1011.0 |
| 20260509174459 | 12 | 312 | 0.0 | 3.2 | 0.15 | 0.18 | 0.18 | 79 | 1011.0 |
| 20260509171458 | 12 | 336 | 1.6 | 6.4 | 0.08 | 0.08 | 0.08 | 84 | 1011.3 |
| 20260509170001 | 13 | 232 | 1.6 | 4.8 | 0.03 | 0.03 | 0.03 | 85 | 1011.5 |
| 20260509164459 | 13 | 283 | 3.2 | 9.7 | 0.03 | 0.03 | 0.03 | 85 | 1011.2 |